[[{"header":{"parameterUnit":"m.s-1","parameterCategory":2,"la1":30.2991,"la2":30.254,"lo1":-89.0895,"lo2":-89.0444,"dy":0.0017,"dx":0.0017,"nx":28,"ny":28,"refTime":"2025-07-22T21:00:00:Z","depth":"0","parameterNumber":2,"parameterNumberName":"U-component_of_CURRENTS"},"data":[0,0,0,0,0,0,0,0,0,0,0,0,0,0,0,0,0,0,0,0,0,0,0,0,0,0,0,0,0,0,0,0,0,0,0,0,0,0,0,0,0,0,0,0,0,0,0,0,0,0,0,0,0,0,0,0,0,0,0.1916,0.1916,0,0.1966,0.1966,0.1967,0.1961,0.196,0.1959,0.1959,0.2019,0.2021,0.2023,0,0,0,0,0,0,0,0,0,0,0,0,0,0.1843,0.1844,0.1915,0.1916,0.1917,0.1966,0.1966,0.1967,0.1961,0.196,0.1959,0.1958,0.2018,0.2021,0.2024,0,0,0,0,0,0,0,0,0,0,0,0,0,0.1881,0.1844,0.1915,0.192,0.1921,0.1965,0.1966,0.1967,0.1961,0.196,0.1959,0.1958,0.2017,0.2021,0.2024,0.2067,0,0,0.2034,0.2036,0,0,0,0,0,0,0,0,0.1879,0.1883,0.1919,0.192,0.1921,0.1957,0.1963,0.2001,0.1961,0.1945,0.1959,0.1957,0.2,0.2005,0.2016,0.207,0.2072,0.2035,0.2037,0.2038,0.2039,0,0,0,0,0,0,0,0.1876,0.1881,0.1934,0.192,0.1921,0.193,0.1934,0.197,0.1978,0.1946,0.1946,0.1954,0.2001,0.2012,0.2017,0.2073,0.2035,0.2038,0.204,0.2041,0.2192,0.2194,0,0,0,0,0,0,0.1872,0.1879,0.1933,0.1936,0.1898,0.1932,0.1936,0.1946,0.1977,0.1981,0.1955,0.1953,0.2007,0.2013,0.2019,0.2088,0.2038,0.2041,0.2043,0.219,0.2193,0.2195,0,0,0,0,0,0,0.187,0.1876,0.1931,0.1909,0.1917,0.1934,0.1945,0.1947,0.196,0.1983,0.1987,0.1965,0.2006,0.2014,0.2061,0.209,0.2043,0.2046,0.2188,0.2191,0.2194,0.2216,0,0,0,0,0,0,0.1868,0.1875,0.1883,0.1909,0.1918,0.1962,0.1946,0.1949,0.1967,0.1965,0.1994,0.1998,0.2006,0.2056,0.2064,0.2094,0.2049,0.2185,0.2189,0.2193,0.2213,0.222,0.2225,0,0,0,0,0,0.1865,0.1882,0.1883,0.189,0.1927,0.1963,0.1969,0.1977,0.1968,0.1982,0.2003,0.1997,0.2085,0.206,0.2069,0.2101,0.2184,0.2188,0.2192,0.221,0.2218,0.2225,0,0,0,0,0,0,0.1857,0.1884,0.1886,0.1911,0.1936,0.1962,0.1978,0.1983,0.201,0.2008,0.2022,0.203,0.2084,0.2094,0.2066,0.2157,0.2134,0.2141,0.2145,0.2152,0.2158,0.215,0.2052,0,0,0,0,0,0.1859,0.1878,0.1905,0.1926,0.1939,0.1959,0.1975,0.1982,0.2008,0.2018,0.2038,0.2069,0.2112,0.213,0.2167,0.2216,0.223,0.2244,0.225,0.2255,0.2258,0.2352,0.2367,0.2209,0.2209,0.2209,0,0,0.186,0.188,0.1889,0.1926,0.1944,0.1981,0.1966,0.1994,0.2025,0.2023,0.207,0.2094,0.2132,0.2186,0.2211,0.2195,0.2296,0.2261,0.2264,0.2264,0.2358,0.2373,0.2387,0.2212,0.2212,0.2211,0,0,0.1885,0.1891,0.192,0.1945,0.1979,0.1996,0.2005,0.2036,0.2048,0.2098,0.2108,0.2146,0.2207,0.2236,0.2261,0.2327,0.233,0.2341,0.2361,0.2453,0.2467,0.2479,0.2461,0.2472,0.2339,0.2339,0.234,0,0.1887,0.1927,0.1935,0.1975,0.1998,0.2005,0.2045,0.2068,0.211,0.2124,0.2117,0.2211,0.2234,0.2306,0.2324,0.2339,0.2362,0.2325,0.2461,0.2474,0.2486,0.2465,0.2477,0.2341,0.2341,0.2341,0.2341,0,0.194,0.1972,0.1992,0.2043,0.2067,0.2102,0.2131,0.2153,0.2164,0.2184,0.2246,0.2281,0.2329,0.235,0.2356,0.2451,0.2424,0.246,0.2437,0.2503,0.2476,0.2488,0.2343,0.2343,0.2342,0.2342,0,0,0.1948,0.2016,0.2024,0.2055,0.2104,0.2132,0.2175,0.2218,0.2244,0.2281,0.2328,0.2391,0.2389,0.2418,0.2434,0.2504,0.2582,0.2516,0.252,0.2486,0.272,0.2398,0.2378,0.266,0.2663,0.2666,0.2645,0,0.1989,0.2076,0.2092,0.2162,0.2207,0.2215,0.2253,0.2286,0.2309,0.2354,0.2386,0.244,0.2424,0.2448,0.2517,0.259,0.2624,0.258,0.2671,0.2671,0.237,0.2386,0.2199,0.214,0.2656,0.2658,0.2659,0,0.2041,0.2092,0.2171,0.2222,0.2238,0.227,0.2314,0.2349,0.2397,0.2414,0.2456,0.2481,0.2558,0.2553,0.2676,0.2655,0.2679,0.2719,0.2721,0.2423,0.2372,0.2172,0.2142,0.205,0.2677,0.2676,0.2674,0,0.2066,0.2142,0.2204,0.2228,0.229,0.2305,0.2326,0.2364,0.2392,0.2451,0.2478,0.256,0.26,0.2694,0.2695,0.2732,0.2804,0.2872,0.2585,0.256,0.2413,0.2367,0.2295,0.2957,0.2957,0.2957,0.2957,0,0.2116,0.2163,0.2215,0.2255,0.2308,0.2325,0.237,0.2395,0.2433,0.2466,0.2505,0.254,0.2654,0.2677,0.2716,0.2616,0.281,0.2564,0.2543,0.2402,0.2357,0.2278,0.2266,0.2956,0.2956,0.2957,0.2957,0,0.2155,0.2188,0.2263,0.2319,0.2329,0.2367,0.2397,0.2419,0.2445,0.2493,0.2514,0.2559,0.2545,0.2552,0.2655,0.2581,0.2442,0.248,0.2216,0.216,0.177,0.1766,0.1622,0.16,0.2193,0.2185,0.2178,0,0.2187,0.2236,0.2313,0.2336,0.236,0.24,0.2414,0.2437,0.245,0.2489,0.2508,0.2482,0.2414,0.2323,0.2195,0.2086,0.2127,0.1838,0.1862,0.1672,0.1662,0.168,0.1682,0.1687,0.1677,0.1669,0.1662,0,0.225,0.2278,0.2332,0.2395,0.2416,0.2436,0.2447,0.2456,0.2464,0.2452,0.2408,0.2351,0.2155,0.1896,0.1652,0.1606,0.1669,0.1651,0.1614,0.1341,0.1216,0.1207,0.1715,0.1588,0.1595,0.1601,0.1605,0.1608,0.2283,0.2335,0.2399,0.2437,0.246,0.2442,0.2398,0.2377,0.234,0.2206,0.2251,0.1991,0.1688,0.1287,0.1215,0.0873,0.1079,0.0832,0.0866,0.0921,0.0806,0.1026,0.0765,0.0767,0.0769,0.0771,0.0773,0,0.2317,0.2367,0.2423,0.2453,0.2432,0.2438,0.2388,0.2261,0.2127,0.1961,0.1812,0.1314,0.0961,0.0711,0.0291,0.0146,0.0276,0.0127,0.0231,0.0303,0.0632,0.051,-0.0012,-0.0012,-0.0011,-0.0011,-0.0011,-0.0011,0.234,0.2392,0.2411,0.239,0.2376,0.2252,0.2167,0.1972,0.1786,0.1336,0.0958,0.0757,0.0385,-0.0082,-0.0369,-0.0348,-0.0246,-0.0373,-0.0211,0.0095,0.0169,0.0241,0.0127,-0.0467,-0.0468,-0.0534,-0.0536,-0.0537]},{"header":{"parameterUnit":"m.s-1","parameterCategory":2,"la1":30.2991,"la2":30.254,"lo1":-89.0895,"lo2":-89.0444,"dy":0.0017,"dx":0.0017,"nx":28,"ny":28,"refTime":"2025-07-22T21:00:00:Z","depth":"0","parameterNumber":3,"parameterNumberName":"V-component_of_CURRENTS"},"data":[0,0,0,0,0,0,0,0,0,0,0,0,0,0,0,0,0,0,0,0,0,0,0,0,0,0,0,0,0,0,0,0,0,0,0,0,0,0,0,0,0,0,0,0,0,0,0,0,0,0,0,0,0,0,0,0,0,0,0.0186,0.0187,0,0.0194,0.0194,0.0194,0.0186,0.0186,0.0186,0.0186,0.0166,0.0166,0.0165,0,0,0,0,0,0,0,0,0,0,0,0,0,0.0165,0.0165,0.0186,0.0187,0.0187,0.0194,0.0194,0.0194,0.0186,0.0186,0.0186,0.0186,0.0166,0.0166,0.0165,0,0,0,0,0,0,0,0,0,0,0,0,0,0.0173,0.0166,0.0186,0.0184,0.0184,0.0194,0.0194,0.0194,0.0186,0.0186,0.0186,0.0185,0.0166,0.0166,0.0165,0.0169,0,0,0.0164,0.0164,0,0,0,0,0,0,0,0,0.0172,0.0173,0.0185,0.0185,0.0185,0.019,0.018,0.0185,0.0186,0.0185,0.0186,0.0185,0.0172,0.0171,0.0173,0.0168,0.0167,0.0164,0.0164,0.0163,0.0163,0,0,0,0,0,0,0,0.0172,0.0173,0.0188,0.0185,0.0185,0.0183,0.0184,0.0181,0.0179,0.0185,0.0184,0.0187,0.0172,0.0173,0.0172,0.0167,0.0164,0.0164,0.0163,0.0163,0.0199,0.02,0,0,0,0,0,0,0.0173,0.0173,0.0188,0.0189,0.0179,0.0184,0.0185,0.0188,0.018,0.0179,0.0187,0.0187,0.0174,0.0173,0.0171,0.0187,0.0163,0.0163,0.0163,0.0198,0.0199,0.0201,0,0,0,0,0,0,0.0173,0.0175,0.0188,0.0182,0.0183,0.0185,0.0188,0.0188,0.019,0.0182,0.018,0.019,0.0174,0.0172,0.017,0.0185,0.0163,0.0162,0.0196,0.0198,0.02,0.021,0,0,0,0,0,0,0.0172,0.0174,0.0177,0.0182,0.0184,0.0197,0.0189,0.0188,0.0193,0.0192,0.0183,0.0181,0.0173,0.0171,0.0169,0.0184,0.0162,0.0195,0.0197,0.02,0.0208,0.0212,0.0216,0,0,0,0,0,0.0171,0.018,0.0177,0.0178,0.0187,0.0198,0.0199,0.0198,0.0193,0.0197,0.019,0.0182,0.0185,0.017,0.0169,0.0184,0.0194,0.0197,0.0199,0.0207,0.0212,0.0216,0,0,0,0,0,0,0.0171,0.018,0.0177,0.0187,0.0192,0.0197,0.0201,0.02,0.0199,0.0195,0.0185,0.0183,0.0191,0.019,0.0174,0.0206,0.0193,0.0196,0.02,0.0204,0.0208,0.0231,0.0162,0,0,0,0,0,0.0172,0.0181,0.0187,0.0194,0.0197,0.0198,0.0202,0.0202,0.0202,0.0201,0.0195,0.0196,0.0203,0.0203,0.0206,0.0214,0.0257,0.023,0.0233,0.0236,0.0257,0.0384,0.0402,0.021,0.021,0.021,0,0,0.0173,0.018,0.0184,0.0195,0.0197,0.0196,0.0199,0.0207,0.0206,0.0199,0.0195,0.0204,0.0209,0.022,0.0225,0.0219,0.03,0.024,0.0242,0.0262,0.0389,0.0408,0.0425,0.0212,0.0212,0.0211,0,0,0.0178,0.0186,0.019,0.0194,0.02,0.0201,0.0204,0.0209,0.0211,0.0213,0.0214,0.0243,0.0231,0.0256,0.0262,0.0293,0.0315,0.0285,0.032,0.0442,0.0459,0.0475,0.0494,0.0512,0.0287,0.0287,0.0287,0,0.0175,0.0179,0.0194,0.0195,0.0193,0.0202,0.0197,0.0205,0.0208,0.0227,0.0212,0.0264,0.0259,0.0309,0.0312,0.0304,0.0344,0.0295,0.0449,0.0466,0.0482,0.0498,0.0518,0.0288,0.0288,0.0288,0.0288,0,0.0177,0.0176,0.018,0.018,0.0185,0.0185,0.0193,0.0205,0.0209,0.023,0.0283,0.0301,0.0344,0.0343,0.0326,0.0433,0.041,0.0438,0.0438,0.0503,0.0513,0.0534,0.0289,0.0289,0.0289,0.0288,0,0,0.0174,0.0178,0.0177,0.0174,0.0174,0.0182,0.0188,0.0213,0.0254,0.0272,0.0344,0.0359,0.0402,0.0416,0.0426,0.0517,0.0629,0.0519,0.0526,0.0537,0.0837,0.0734,0.0745,0.0697,0.0702,0.0706,0.0775,0,0.0163,0.0158,0.0165,0.0159,0.0153,0.0168,0.0185,0.0217,0.0256,0.0333,0.0393,0.0459,0.0419,0.0463,0.0547,0.0637,0.0694,0.0604,0.0775,0.0778,0.0682,0.0772,0.0742,0.0798,0.0795,0.0799,0.0801,0,0.0154,0.0153,0.014,0.0157,0.016,0.0164,0.0217,0.0238,0.0342,0.0387,0.0478,0.0536,0.0651,0.063,0.0804,0.0752,0.0785,0.0839,0.0845,0.0771,0.0717,0.0747,0.0835,0.0867,0.0833,0.083,0.0828,0,0.014,0.0139,0.0128,0.0126,0.0147,0.0159,0.0181,0.026,0.0322,0.0448,0.0538,0.0659,0.0766,0.0861,0.0921,0.0895,0.1116,0.11,0.1018,0.1007,0.1028,0.101,0.1177,0.1226,0.1226,0.1226,0.1225,0,0.0119,0.0116,0.0124,0.0118,0.0148,0.0159,0.023,0.0274,0.0394,0.0514,0.0579,0.0716,0.0848,0.0968,0.0988,0.1059,0.1167,0.1045,0.1052,0.1018,0.1,0.1062,0.108,0.1228,0.1227,0.1227,0.1227,0,0.0107,0.0099,0.0106,0.0125,0.0139,0.0167,0.026,0.0337,0.0425,0.0595,0.065,0.082,0.0966,0.1029,0.1198,0.1154,0.1232,0.1199,0.1083,0.1075,0.0996,0.1013,0.1192,0.1208,0.1141,0.1139,0.1138,0,0.0101,0.0097,0.0123,0.0152,0.0162,0.0213,0.0272,0.0349,0.0445,0.0663,0.0763,0.0936,0.1065,0.1205,0.1185,0.1185,0.1214,0.1115,0.1062,0.1011,0.1039,0.106,0.1064,0.107,0.1068,0.1066,0.1065,0,0.0112,0.0121,0.0139,0.0192,0.0239,0.0307,0.039,0.0468,0.0596,0.0736,0.094,0.1057,0.1157,0.1186,0.1134,0.1116,0.1136,0.1078,0.1132,0.1086,0.1029,0.1039,0.0924,0.1052,0.1053,0.1054,0.1055,0.1055,0.0147,0.0172,0.0205,0.0256,0.0316,0.0402,0.0471,0.058,0.0727,0.0921,0.1023,0.1149,0.1166,0.1109,0.1095,0.1004,0.1043,0.0976,0.1019,0.1058,0.1041,0.0821,0.0887,0.0888,0.0888,0.0888,0.0888,0,0.0202,0.0231,0.028,0.0347,0.0423,0.0438,0.0561,0.0635,0.0799,0.0931,0.1074,0.1094,0.1109,0.1077,0.0983,0.0963,0.0987,0.0974,0.1056,0.1077,0.0988,0.0948,0.0904,0.0904,0.0904,0.0904,0.0904,0.0904,0.0243,0.0294,0.031,0.0429,0.0484,0.0581,0.0648,0.0748,0.083,0.0941,0.0957,0.0977,0.095,0.1061,0.1053,0.1036,0.1114,0.108,0.1138,0.1108,0.1113,0.1118,0.1087,0.1074,0.1074,0.1219,0.122,0.1221]}],[{"header":{"parameterUnit":"m.s-1","parameterCategory":2,"la1":30.2991,"la2":30.254,"lo1":-89.0895,"lo2":-89.0444,"dy":0.0017,"dx":0.0017,"nx":28,"ny":28,"refTime":"2025-07-22T21:00:00:Z","depth":"2","parameterNumber":2,"parameterNumberName":"U-component_of_CURRENTS"},"data":[0,0,0,0,0,0,0,0,0,0,0,0,0,0,0,0,0,0,0,0,0,0,0,0,0,0,0,0,0,0,0,0,0,0,0,0,0,0,0,0,0,0,0,0,0,0,0,0,0,0,0,0,0,0,0,0,0,0,0.1141,0.1142,0,0.1219,0.122,0.1222,0.1201,0.12,0.1198,0.1196,0.1202,0.1203,0.1205,0,0,0,0,0,0,0,0,0,0,0,0,0,0.1185,0.1183,0.1141,0.1142,0.1143,0.1219,0.1221,0.1222,0.1202,0.12,0.1198,0.1196,0.1201,0.1203,0.1205,0,0,0,0,0,0,0,0,0,0,0,0,0,0.1206,0.1183,0.1141,0.1141,0.1141,0.1219,0.1221,0.1222,0.1202,0.12,0.1197,0.1195,0.12,0.1203,0.1205,0.1274,0,0,0.1214,0.1215,0,0,0,0,0,0,0,0,0.1205,0.1205,0.114,0.1141,0.1141,0.1196,0.1238,0.1235,0.1203,0.1181,0.1196,0.1193,0.1194,0.1197,0.1221,0.1274,0.1274,0.1214,0.1215,0.1216,0.1217,0,0,0,0,0,0,0,0.1203,0.1203,0.1174,0.1141,0.1142,0.1208,0.1207,0.1239,0.1201,0.1183,0.1181,0.1187,0.1193,0.1219,0.1221,0.1274,0.1214,0.1216,0.1218,0.1219,0.1349,0.1351,0,0,0,0,0,0,0.1181,0.12,0.1172,0.1176,0.1165,0.1209,0.1207,0.1183,0.1203,0.1203,0.119,0.1186,0.1216,0.1218,0.1221,0.1267,0.1216,0.1219,0.122,0.1347,0.1349,0.1351,0,0,0,0,0,0,0.1181,0.1176,0.1169,0.1191,0.1194,0.1209,0.1183,0.1186,0.1194,0.1208,0.1207,0.1191,0.1214,0.1217,0.1236,0.1267,0.122,0.1223,0.1345,0.1348,0.135,0.1381,0,0,0,0,0,0,0.1181,0.1175,0.1171,0.1188,0.1191,0.1174,0.1186,0.1189,0.1201,0.1197,0.121,0.1209,0.1212,0.1232,0.1239,0.127,0.1225,0.1342,0.1346,0.1349,0.1377,0.1384,0.139,0,0,0,0,0,0.1182,0.1177,0.117,0.1168,0.1176,0.1172,0.118,0.1187,0.1204,0.1189,0.1218,0.1208,0.1259,0.1236,0.1243,0.1276,0.1341,0.1345,0.1349,0.1375,0.1383,0.139,0,0,0,0,0,0,0.1193,0.1175,0.1167,0.1155,0.1144,0.1167,0.1183,0.1189,0.1209,0.1219,0.1229,0.123,0.1254,0.1269,0.1243,0.1326,0.1301,0.1307,0.1318,0.1326,0.1332,0.136,0.1227,0,0,0,0,0,0.1194,0.1182,0.1166,0.1157,0.1156,0.1173,0.1185,0.1182,0.1199,0.1206,0.122,0.1254,0.1288,0.1304,0.1322,0.1376,0.1397,0.1404,0.1411,0.1416,0.1446,0.1537,0.1554,0.1365,0.1365,0.1365,0,0,0.1201,0.1189,0.1185,0.116,0.117,0.1171,0.1173,0.1181,0.1195,0.1207,0.1242,0.1264,0.1302,0.1348,0.1364,0.1361,0.1467,0.1421,0.1425,0.1453,0.1543,0.1562,0.1578,0.1368,0.1367,0.1367,0,0,0.1207,0.1191,0.1184,0.1177,0.1175,0.118,0.1174,0.1188,0.1201,0.1241,0.1258,0.1305,0.1351,0.1392,0.1421,0.1483,0.1486,0.1484,0.1555,0.1643,0.1659,0.1674,0.1662,0.1676,0.1503,0.1503,0.1503,0,0.1222,0.1195,0.1183,0.1177,0.1184,0.1178,0.1179,0.1201,0.122,0.1261,0.1246,0.1377,0.1385,0.1485,0.1502,0.1499,0.1521,0.1517,0.1652,0.1668,0.1683,0.1667,0.1682,0.1505,0.1504,0.1504,0.1504,0,0.1206,0.1204,0.1204,0.1188,0.1191,0.1189,0.1202,0.1224,0.1256,0.1295,0.1387,0.1431,0.1519,0.1525,0.1537,0.1655,0.162,0.1634,0.163,0.1704,0.1681,0.1696,0.1507,0.1507,0.1506,0.1506,0,0,0.1205,0.1194,0.1198,0.1207,0.1198,0.1203,0.1236,0.1275,0.1341,0.1386,0.1486,0.1562,0.1613,0.1653,0.1679,0.176,0.1847,0.1753,0.1757,0.1734,0.1982,0.1719,0.1709,0.1896,0.1901,0.1904,0.19,0,0.1201,0.1193,0.1188,0.1209,0.1215,0.1233,0.1274,0.1322,0.1379,0.1472,0.1562,0.1658,0.1654,0.1717,0.18,0.184,0.1901,0.1843,0.1921,0.1922,0.1677,0.1724,0.1578,0.1544,0.1915,0.1917,0.1919,0,0.1196,0.1191,0.1203,0.1244,0.1252,0.1277,0.1363,0.14,0.1521,0.158,0.1701,0.1759,0.1882,0.1875,0.2005,0.1972,0.1992,0.2013,0.2014,0.1781,0.169,0.1545,0.1558,0.1944,0.1942,0.194,0.1939,0,0.121,0.1218,0.1232,0.1239,0.1275,0.1322,0.1357,0.1456,0.1523,0.1669,0.1737,0.1881,0.1947,0.2047,0.2043,0.2063,0.2143,0.2173,0.1948,0.1925,0.1822,0.1782,0.2287,0.2287,0.2287,0.2287,0.2287,0,0.1212,0.1233,0.1256,0.127,0.1342,0.136,0.1468,0.1529,0.1639,0.1724,0.1813,0.1876,0.2006,0.2039,0.2075,0.2003,0.2165,0.1962,0.1928,0.1813,0.1775,0.2156,0.2141,0.2287,0.2287,0.2287,0.2287,0,0.1237,0.1236,0.1281,0.1328,0.136,0.1425,0.1524,0.1591,0.1683,0.1794,0.1843,0.1903,0.1911,0.1951,0.2044,0.198,0.1983,0.1916,0.1698,0.1636,0.1706,0.1693,0.1716,0.1707,0.17,0.1694,0.1688,0,0.1242,0.1268,0.134,0.1382,0.1415,0.1503,0.1559,0.1638,0.168,0.1781,0.1808,0.1834,0.1785,0.1729,0.1663,0.1617,0.1767,0.1421,0.1439,0.1693,0.1659,0.1658,0.1655,0.1308,0.13,0.1294,0.1289,0,0.1279,0.1319,0.1351,0.1426,0.1493,0.1549,0.161,0.1626,0.1694,0.1735,0.1701,0.1666,0.1556,0.137,0.124,0.1219,0.1417,0.1276,0.1678,0.1426,0.1295,0.1264,0.128,0.1231,0.1237,0.1241,0.1244,0.1246,0.1324,0.1358,0.1404,0.1457,0.1528,0.1529,0.1519,0.1526,0.1528,0.1472,0.1502,0.135,0.129,0.0967,0.0885,0.0817,0.0966,0.0946,0.0975,0.1009,0.0913,0.0772,0.0587,0.0589,0.0591,0.0593,0.0594,0,0.1336,0.1361,0.1419,0.1449,0.1456,0.1523,0.1499,0.1406,0.1301,0.1252,0.116,0.0921,0.0711,0.0677,0.0468,0.0392,0.0494,0.0371,0.0544,0.0597,0.0646,0.0543,0.0114,0.0113,0.0112,0.0111,0,0,0.1348,0.1357,0.1344,0.1329,0.1367,0.1304,0.125,0.113,0.1025,0.0836,0.0721,0.066,0.0634,0.0388,0.0316,0.0189,0.0411,0.0155,0.0537,0.0796,0.0845,0.0958,0.0851,0,0,0,0,0]},{"header":{"parameterUnit":"m.s-1","parameterCategory":2,"la1":30.2991,"la2":30.254,"lo1":-89.0895,"lo2":-89.0444,"dy":0.0017,"dx":0.0017,"nx":28,"ny":28,"refTime":"2025-07-22T21:00:00:Z","depth":"2","parameterNumber":3,"parameterNumberName":"V-component_of_CURRENTS"},"data":[0,0,0,0,0,0,0,0,0,0,0,0,0,0,0,0,0,0,0,0,0,0,0,0,0,0,0,0,0,0,0,0,0,0,0,0,0,0,0,0,0,0,0,0,0,0,0,0,0,0,0,0,0,0,0,0,0,0,0.0073,0.0073,0,0.0081,0.0081,0.0081,0.0077,0.0077,0.0077,0.0077,0.009,0.0091,0.0091,0,0,0,0,0,0,0,0,0,0,0,0,0,0.003,0.003,0.0073,0.0073,0.0074,0.0081,0.0081,0.0081,0.0077,0.0077,0.0077,0.0077,0.009,0.0091,0.0091,0,0,0,0,0,0,0,0,0,0,0,0,0,0.0042,0.0031,0.0073,0.0075,0.0075,0.0081,0.0081,0.0081,0.0077,0.0077,0.0077,0.0077,0.009,0.0091,0.0091,0.0093,0,0,0.0093,0.0093,0,0,0,0,0,0,0,0,0.0041,0.0043,0.0074,0.0075,0.0075,0.008,0.0071,0.0086,0.0077,0.0073,0.0077,0.0077,0.0089,0.009,0.0087,0.0094,0.0094,0.0093,0.0093,0.0093,0.0093,0,0,0,0,0,0,0,0.004,0.0042,0.0074,0.0074,0.0075,0.0067,0.0068,0.0073,0.0079,0.0074,0.0074,0.0079,0.0089,0.0087,0.0088,0.0095,0.0093,0.0093,0.0093,0.0094,0.0123,0.0123,0,0,0,0,0,0,0.0046,0.0042,0.0073,0.0074,0.0061,0.0068,0.007,0.0076,0.0079,0.008,0.0079,0.0079,0.0086,0.0087,0.0088,0.0108,0.0093,0.0094,0.0094,0.0122,0.0123,0.0123,0,0,0,0,0,0,0.0045,0.0049,0.0073,0.006,0.0063,0.0069,0.0076,0.0077,0.0078,0.0083,0.0084,0.0081,0.0086,0.0088,0.0099,0.0108,0.0094,0.0094,0.0122,0.0122,0.0123,0.0137,0,0,0,0,0,0,0.0044,0.0048,0.0049,0.0061,0.0064,0.0086,0.0077,0.0077,0.0082,0.0082,0.0085,0.0086,0.0086,0.0099,0.01,0.0108,0.0095,0.0121,0.0122,0.0123,0.0136,0.0138,0.014,0,0,0,0,0,0.0042,0.0047,0.0049,0.0053,0.0067,0.0087,0.0088,0.009,0.0082,0.0089,0.0089,0.0086,0.0105,0.0099,0.0101,0.011,0.0121,0.0122,0.0123,0.0135,0.0138,0.014,0,0,0,0,0,0,0.0028,0.0048,0.005,0.0061,0.0077,0.0087,0.009,0.0091,0.0095,0.009,0.0092,0.0094,0.0109,0.0107,0.0101,0.0121,0.0113,0.0114,0.0121,0.0124,0.0126,0.0169,0.0095,0,0,0,0,0,0.0027,0.0036,0.0056,0.0065,0.0072,0.008,0.0085,0.0089,0.0097,0.0097,0.0101,0.0104,0.0113,0.0117,0.0125,0.0134,0.016,0.014,0.0142,0.0144,0.0181,0.0248,0.026,0.0127,0.0127,0.0127,0,0,0.0024,0.0036,0.0041,0.0063,0.007,0.0085,0.0082,0.0094,0.0107,0.0099,0.0112,0.0114,0.0118,0.0131,0.0137,0.0131,0.0184,0.0146,0.0147,0.0184,0.025,0.0264,0.0276,0.0128,0.0128,0.0127,0,0,0.0027,0.0034,0.0045,0.0059,0.0077,0.0086,0.0092,0.0106,0.0113,0.0125,0.0125,0.0146,0.0141,0.0163,0.0168,0.0189,0.0195,0.0172,0.0216,0.0279,0.0291,0.0303,0.0303,0.0314,0.017,0.017,0.017,0,0.0022,0.004,0.0051,0.0066,0.008,0.0089,0.0106,0.0115,0.0131,0.0159,0.0131,0.0181,0.0167,0.0222,0.0214,0.0198,0.0213,0.0202,0.0284,0.0297,0.0308,0.0306,0.0318,0.0171,0.0171,0.0171,0.0171,0,0.0038,0.005,0.0058,0.0081,0.0097,0.0113,0.0133,0.0153,0.0156,0.018,0.0234,0.0232,0.0275,0.0255,0.0231,0.0305,0.0278,0.0281,0.0282,0.0323,0.0316,0.0329,0.0172,0.0172,0.0172,0.0171,0,0,0.0031,0.0063,0.0065,0.0084,0.0107,0.0127,0.0156,0.0206,0.0257,0.0266,0.0348,0.0339,0.0363,0.0373,0.0361,0.0398,0.0445,0.0365,0.0368,0.0371,0.0543,0.0457,0.0462,0.0463,0.0466,0.0469,0.0487,0,0.0041,0.0072,0.0087,0.012,0.0139,0.0165,0.0202,0.0249,0.029,0.0371,0.0404,0.0462,0.0401,0.0426,0.0458,0.0471,0.0488,0.0437,0.05,0.0502,0.0428,0.048,0.0468,0.048,0.05,0.0502,0.0503,0,0.005,0.0072,0.0101,0.0158,0.0171,0.019,0.0277,0.0314,0.0424,0.0463,0.0544,0.0584,0.065,0.059,0.0648,0.0617,0.0583,0.0575,0.0576,0.0516,0.0443,0.0453,0.0503,0.0525,0.0523,0.0522,0.052,0,0.0045,0.0087,0.0112,0.0125,0.0183,0.021,0.0247,0.0341,0.0413,0.0537,0.0624,0.0705,0.0759,0.0772,0.0725,0.0703,0.0778,0.075,0.0639,0.0629,0.0646,0.0633,0.0799,0.0799,0.0799,0.0799,0.0799,0,0.0053,0.0076,0.0108,0.0122,0.0182,0.021,0.0303,0.0361,0.0485,0.0605,0.0673,0.0782,0.0811,0.0853,0.0795,0.0751,0.0831,0.0672,0.0653,0.064,0.0626,0.0699,0.0687,0.0799,0.0799,0.0799,0.0799,0,0.0049,0.0064,0.0105,0.0157,0.0177,0.0219,0.033,0.0424,0.0513,0.0681,0.0732,0.0861,0.0901,0.0894,0.0905,0.083,0.08,0.0748,0.069,0.0663,0.0586,0.0574,0.0666,0.0664,0.0662,0.066,0.0659,0,0.0053,0.0065,0.0127,0.0172,0.0194,0.0261,0.0338,0.0426,0.0546,0.0725,0.0834,0.0912,0.0968,0.0936,0.085,0.0757,0.075,0.0657,0.0621,0.0613,0.0585,0.0576,0.0568,0.0627,0.0626,0.0624,0.0623,0,0.0074,0.009,0.0136,0.0221,0.0287,0.0379,0.0489,0.0578,0.0712,0.0824,0.0957,0.0991,0.0969,0.0886,0.0748,0.068,0.0678,0.0624,0.0702,0.0642,0.0573,0.0545,0.054,0.0612,0.0613,0.0614,0.0615,0.0615,0.0105,0.015,0.0218,0.0304,0.0383,0.0499,0.0569,0.0685,0.0815,0.0943,0.0986,0.0972,0.0929,0.0715,0.065,0.0566,0.0575,0.0525,0.0531,0.0539,0.0511,0.0441,0.0447,0.0447,0.0447,0.0447,0.0447,0,0.0169,0.0229,0.0312,0.042,0.051,0.0535,0.0688,0.0735,0.0839,0.089,0.0921,0.0808,0.0733,0.0662,0.0527,0.0457,0.048,0.0424,0.0484,0.0494,0.0503,0.0477,0.0402,0.0402,0.0402,0.0402,0,0,0.0217,0.0313,0.0359,0.0515,0.0579,0.068,0.0745,0.0767,0.0796,0.0779,0.0729,0.0726,0.0681,0.0574,0.0525,0.0456,0.048,0.0432,0.0471,0.0557,0.0567,0.056,0.0529,0,0,0,0,0]}],[{"header":{"parameterUnit":"m.s-1","parameterCategory":2,"la1":30.2991,"la2":30.254,"lo1":-89.0895,"lo2":-89.0444,"dy":0.0017,"dx":0.0017,"nx":28,"ny":28,"refTime":"2025-07-22T21:00:00:Z","depth":"4","parameterNumber":2,"parameterNumberName":"U-component_of_CURRENTS"},"data":[0,0,0,0,0,0,0,0,0,0,0,0,0,0,0,0,0,0,0,0,0,0,0,0,0,0,0,0,0,0,0,0,0,0,0,0,0,0,0,0,0,0,0,0,0,0,0,0,0,0,0,0,0,0,0,0,0,0,0.0275,0.0274,0,0.0202,0.0201,0.02,0.0221,0.0222,0.0224,0.0225,0.0176,0.0174,0.0171,0,0,0,0,0,0,0,0,0,0,0,0,0,0.0368,0.0367,0.0275,0.0274,0.0273,0.0202,0.0201,0.02,0.022,0.0222,0.0224,0.0226,0.0177,0.0174,0.0171,0,0,0,0,0,0,0,0,0,0,0,0,0,0.0315,0.0367,0.0275,0.0275,0.0274,0.0202,0.0201,0.0199,0.022,0.0222,0.0225,0.0227,0.0178,0.0174,0.017,0.0099,0,0,0.0158,0.0156,0,0,0,0,0,0,0,0,0.0318,0.0311,0.0276,0.0275,0.0274,0.0223,0.0216,0.0167,0.0219,0.024,0.0225,0.0228,0.0193,0.0187,0.0168,0.0097,0.0095,0.0157,0.0155,0.0153,0.0152,0,0,0,0,0,0,0,0.0322,0.0314,0.0245,0.0275,0.0273,0.0257,0.0252,0.0206,0.0205,0.0239,0.024,0.0232,0.0193,0.0172,0.0167,0.0094,0.0158,0.0154,0.0151,0.015,0.0084,0.0085,0,0,0,0,0,0,0.0332,0.0318,0.0248,0.0243,0.0302,0.0254,0.0248,0.0237,0.0205,0.0202,0.023,0.0233,0.0178,0.0172,0.0165,0.0169,0.0153,0.0149,0.0147,0.0084,0.0085,0.0085,0,0,0,0,0,0,0.0334,0.0326,0.0251,0.028,0.0269,0.025,0.0236,0.0234,0.0247,0.0198,0.0196,0.025,0.0179,0.0171,0.0155,0.0165,0.0148,0.0144,0.0083,0.0084,0.0085,0.0119,0,0,0,0,0,0,0.0337,0.0327,0.0327,0.028,0.0268,0.0233,0.0234,0.0231,0.0236,0.0241,0.0213,0.0209,0.018,0.0162,0.0151,0.0159,0.0141,0.0082,0.0083,0.0085,0.0117,0.0122,0.0125,0,0,0,0,0,0.034,0.0324,0.0327,0.0319,0.0267,0.0233,0.0226,0.0219,0.0236,0.0241,0.0227,0.0212,0.0164,0.0158,0.0146,0.0152,0.0081,0.0083,0.0085,0.0116,0.0121,0.0125,0,0,0,0,0,0,0.0364,0.0323,0.0326,0.03,0.0284,0.0238,0.0232,0.0234,0.0223,0.0233,0.0204,0.0198,0.0193,0.0167,0.0162,0.0141,0.0126,0.0125,0.0154,0.0158,0.0162,0.0189,0.0137,0,0,0,0,0,0.0369,0.035,0.0317,0.0301,0.0293,0.0271,0.026,0.0257,0.0237,0.0237,0.0216,0.0198,0.018,0.0169,0.0144,0.0116,0.0129,0.0119,0.0123,0.0126,0.0143,0.0185,0.0195,0.0091,0.0091,0.0091,0,0,0.0373,0.0349,0.0339,0.0306,0.029,0.0261,0.0271,0.0259,0.0243,0.0228,0.0209,0.0208,0.0179,0.016,0.0155,0.0143,0.0159,0.0128,0.0131,0.0146,0.0188,0.0198,0.0208,0.0092,0.0091,0.0091,0,0,0.0357,0.0354,0.0329,0.0313,0.0292,0.0273,0.028,0.0251,0.0256,0.0232,0.0231,0.0247,0.0192,0.019,0.0177,0.0186,0.0183,0.0178,0.0208,0.0249,0.0258,0.0267,0.0282,0.0292,0.0174,0.0174,0.0174,0,0.0369,0.0321,0.0321,0.0291,0.0272,0.0283,0.0253,0.0246,0.022,0.0231,0.0236,0.0226,0.0208,0.0208,0.022,0.0196,0.0213,0.0189,0.0256,0.0264,0.0272,0.0286,0.0296,0.0176,0.0176,0.0176,0.0175,0,0.0324,0.0293,0.0278,0.0241,0.0233,0.0207,0.02,0.0212,0.0224,0.0222,0.0248,0.024,0.0253,0.0244,0.023,0.0277,0.0269,0.0261,0.0246,0.0285,0.0297,0.0307,0.0179,0.0178,0.0177,0.0177,0,0,0.0321,0.0256,0.0251,0.0227,0.0202,0.0189,0.0187,0.0186,0.0215,0.0217,0.0259,0.0248,0.0295,0.0288,0.0292,0.0322,0.0389,0.0322,0.0323,0.0341,0.0471,0.0385,0.0387,0.0399,0.0401,0.0403,0.0451,0,0.0281,0.0206,0.0193,0.0142,0.0102,0.0128,0.013,0.0151,0.0184,0.0233,0.027,0.0307,0.0293,0.0333,0.0363,0.0394,0.042,0.0376,0.0428,0.0429,0.0351,0.0398,0.041,0.0458,0.0461,0.0462,0.0463,0,0.0226,0.0182,0.0112,0.0089,0.0083,0.0082,0.0126,0.0129,0.021,0.0251,0.032,0.0362,0.0427,0.042,0.0487,0.0464,0.048,0.0489,0.0491,0.041,0.0362,0.0414,0.0481,0.048,0.0479,0.0477,0.0476,0,0.0182,0.0128,0.0069,0.0053,0.0033,0.0058,0.0082,0.0149,0.0189,0.0296,0.0365,0.0429,0.05,0.0531,0.0559,0.0543,0.0627,0.0602,0.0528,0.0521,0.0569,0.0559,0.0655,0.0655,0.0655,0.0655,0.0655,0,0.0109,0.0068,0.006,0.0016,0.0024,0.0043,0.0093,0.0138,0.0244,0.0302,0.0392,0.0457,0.0541,0.0595,0.0595,0.0592,0.0657,0.055,0.0538,0.0578,0.0569,0.0575,0.0565,0.0657,0.0656,0.0656,0.0656,0,0.0046,0.0018,-0.0045,-0.0045,-0.0017,-0.0003,0.0103,0.0155,0.0256,0.035,0.0398,0.052,0.0575,0.0619,0.0676,0.0638,0.0638,0.0615,0.0654,0.0641,0.0494,0.0485,0.0547,0.0544,0.0542,0.0541,0.0539,0,-0.0009,-0.0055,-0.0079,-0.0073,-0.0065,-0.0008,0.0048,0.0151,0.0211,0.0358,0.0399,0.0512,0.0568,0.0602,0.0622,0.0618,0.0595,0.0598,0.0549,0.0506,0.0489,0.0483,0.0477,0.0536,0.0535,0.0535,0.0534,0,-0.0095,-0.0103,-0.0141,-0.0129,-0.0085,-0.0034,0.0055,0.0103,0.0219,0.0315,0.0416,0.0471,0.0529,0.056,0.0574,0.0555,0.0602,0.0576,0.058,0.0534,0.0493,0.0477,0.0473,0.0527,0.0528,0.0529,0.0529,0,-0.0128,-0.0159,-0.0188,-0.0164,-0.0122,-0.0062,-0.0014,0.0086,0.0165,0.0327,0.0342,0.0444,0.0527,0.0524,0.0519,0.0515,0.0488,0.0465,0.0474,0.0482,0.0432,0.0368,0.037,0,0,0,0,0,-0.0138,-0.0165,-0.019,-0.0175,-0.0138,-0.0093,-0.0006,0.0051,0.016,0.0221,0.0294,0.034,0.0385,0.0424,0.0401,0.0431,0.0457,0.0396,0.0427,0.0488,0.0496,0.0438,0,0,0,0,0,0,-0.0141,-0.0176,-0.021,-0.018,-0.015,-0.0088,-0.0036,0.0036,0.008,0.0188,0.0221,0.0298,0.0342,0.0403,0.0394,0.0397,0.04,0.0443,0.0441,0.0483,0.0491,0.0497,0.044,0,0,0,0,0]},{"header":{"parameterUnit":"m.s-1","parameterCategory":2,"la1":30.2991,"la2":30.254,"lo1":-89.0895,"lo2":-89.0444,"dy":0.0017,"dx":0.0017,"nx":28,"ny":28,"refTime":"2025-07-22T21:00:00:Z","depth":"4","parameterNumber":3,"parameterNumberName":"V-component_of_CURRENTS"},"data":[0,0,0,0,0,0,0,0,0,0,0,0,0,0,0,0,0,0,0,0,0,0,0,0,0,0,0,0,0,0,0,0,0,0,0,0,0,0,0,0,0,0,0,0,0,0,0,0,0,0,0,0,0,0,0,0,0,0,0.0129,0.0129,0,0.0167,0.0168,0.0168,0.0193,0.0193,0.0193,0.0193,0.0264,0.0266,0.0268,0,0,0,0,0,0,0,0,0,0,0,0,0,0.0084,0.0084,0.0129,0.0129,0.013,0.0167,0.0168,0.0168,0.0193,0.0193,0.0193,0.0193,0.0263,0.0265,0.0268,0,0,0,0,0,0,0,0,0,0,0,0,0,0.0112,0.0085,0.0129,0.0145,0.0147,0.0167,0.0168,0.0168,0.0193,0.0193,0.0193,0.0193,0.0263,0.0265,0.0268,0.0285,0,0,0.0277,0.0278,0,0,0,0,0,0,0,0,0.0111,0.0114,0.0143,0.0144,0.0146,0.0174,0.0177,0.0209,0.0193,0.0178,0.0193,0.0193,0.0236,0.0241,0.025,0.0289,0.0292,0.0277,0.0279,0.028,0.0281,0,0,0,0,0,0,0,0.0109,0.0113,0.0146,0.0143,0.0145,0.0152,0.0157,0.0183,0.0208,0.0179,0.0181,0.0182,0.0237,0.0247,0.0252,0.0293,0.0277,0.0279,0.0281,0.0282,0.0329,0.0328,0,0,0,0,0,0,0.01,0.0111,0.0145,0.0147,0.0126,0.0153,0.0158,0.0166,0.0207,0.0213,0.0182,0.0183,0.0242,0.0248,0.0254,0.0288,0.028,0.0282,0.0284,0.0329,0.0329,0.0328,0,0,0,0,0,0,0.0099,0.0103,0.0143,0.0128,0.0133,0.0154,0.0163,0.0167,0.0177,0.0209,0.0215,0.0187,0.0243,0.025,0.0283,0.0291,0.0284,0.0286,0.033,0.0329,0.0328,0.0349,0,0,0,0,0,0,0.0098,0.0103,0.0105,0.0127,0.0134,0.0159,0.0163,0.0168,0.0177,0.0178,0.0215,0.0222,0.0243,0.0278,0.0285,0.0295,0.0288,0.033,0.0329,0.0329,0.0349,0.0349,0.035,0,0,0,0,0,0.0096,0.0104,0.0105,0.0109,0.0137,0.016,0.0164,0.0179,0.0177,0.0187,0.0209,0.022,0.0277,0.0281,0.0289,0.0299,0.0331,0.033,0.0329,0.0349,0.0349,0.035,0,0,0,0,0,0,0.0085,0.0107,0.011,0.0123,0.0139,0.0163,0.0171,0.0177,0.0202,0.0203,0.0229,0.0238,0.0267,0.0273,0.0277,0.0305,0.03,0.0301,0.0312,0.0313,0.0313,0.0318,0.0291,0,0,0,0,0,0.0082,0.0096,0.0114,0.0125,0.0132,0.0148,0.0157,0.0169,0.0191,0.0202,0.0224,0.0243,0.0268,0.0283,0.0305,0.0329,0.0309,0.0333,0.0333,0.0333,0.034,0.0298,0.0295,0.0325,0.0325,0.0325,0,0,0.0079,0.0094,0.0101,0.0124,0.0136,0.016,0.0155,0.0172,0.0197,0.0206,0.0243,0.0251,0.0274,0.0302,0.0313,0.0311,0.0314,0.0332,0.0333,0.0339,0.0297,0.0294,0.0292,0.0324,0.0324,0.0324,0,0,0.009,0.0094,0.0113,0.0128,0.0148,0.0164,0.0167,0.0189,0.0203,0.0237,0.0244,0.0255,0.0296,0.031,0.0324,0.0334,0.0317,0.0332,0.0343,0.0303,0.03,0.0298,0.027,0.0264,0.0331,0.0331,0.0331,0,0.0085,0.0117,0.012,0.0144,0.0164,0.0166,0.0195,0.0212,0.0242,0.0254,0.0251,0.0281,0.0302,0.0328,0.0335,0.0338,0.031,0.0347,0.0304,0.0301,0.0298,0.027,0.0264,0.0332,0.0332,0.0332,0.0332,0,0.0113,0.0141,0.0152,0.0189,0.0206,0.0231,0.0252,0.0268,0.0278,0.0289,0.0306,0.0316,0.0332,0.0332,0.035,0.0339,0.0324,0.0311,0.0307,0.0297,0.0267,0.026,0.0333,0.0333,0.0333,0.0332,0,0,0.0107,0.0164,0.0169,0.02,0.0235,0.0255,0.029,0.0324,0.0333,0.0345,0.0356,0.0384,0.0363,0.0375,0.037,0.034,0.0304,0.032,0.0318,0.0298,0.0215,0.0234,0.0229,0.0275,0.0274,0.0274,0.0203,0,0.0134,0.0195,0.0214,0.0274,0.031,0.0324,0.0355,0.0377,0.0382,0.0388,0.0381,0.0391,0.0386,0.0385,0.0354,0.032,0.0287,0.0325,0.0222,0.022,0.0243,0.0222,0.027,0.0198,0.0196,0.0195,0.0194,0,0.0161,0.0204,0.027,0.033,0.0343,0.0377,0.0413,0.0437,0.044,0.0437,0.0425,0.041,0.0396,0.0376,0.0303,0.0323,0.0277,0.0237,0.0232,0.0241,0.0227,0.0208,0.0182,0.0183,0.0184,0.0185,0.0186,0,0.0173,0.0243,0.0304,0.0325,0.0386,0.0418,0.0446,0.0456,0.0472,0.0463,0.046,0.0422,0.0413,0.0339,0.0284,0.0284,0.0182,0.017,0.0139,0.014,0.0136,0.0139,0.0103,0.0103,0.0103,0.0103,0.0103,0,0.0207,0.0251,0.0318,0.0353,0.0408,0.0441,0.048,0.049,0.0499,0.0498,0.0486,0.0465,0.0399,0.0343,0.0275,0.0195,0.0175,0.0141,0.0121,0.0146,0.0151,0.0131,0.0135,0.01,0.0101,0.0101,0.0102,0,0.0215,0.0262,0.0327,0.0399,0.0423,0.0458,0.0514,0.0527,0.0538,0.0533,0.0537,0.0502,0.0425,0.0355,0.0237,0.0199,0.011,0.0084,0.0127,0.011,0.0094,0.01,0.0037,0.0037,0.0037,0.0037,0.0037,0,0.0229,0.0269,0.0348,0.038,0.042,0.0478,0.0509,0.0543,0.0543,0.0541,0.0527,0.0485,0.0446,0.0307,0.0227,0.0105,0.0092,0.0059,0.0072,0.01,0.0086,0.0092,0.0098,0.0037,0.0037,0.0037,0.0037,0,0.024,0.0266,0.0308,0.0376,0.0426,0.0476,0.0518,0.0522,0.0537,0.056,0.0517,0.047,0.039,0.0294,0.0218,0.0124,0.0087,0.0059,0.0058,0.007,0.0099,0.0087,0.0093,0.0038,0.0037,0.0037,0.0037,0,0.0227,0.0243,0.0292,0.0349,0.0411,0.0446,0.048,0.0492,0.0507,0.0505,0.0482,0.0424,0.0396,0.0301,0.0213,0.0147,0.0126,0.0111,0.0107,0.0106,0.0156,0.0206,0.0157,0,0,0,0,0,0.0213,0.0218,0.0262,0.0319,0.0386,0.0427,0.0464,0.0489,0.0504,0.0476,0.0484,0.0409,0.0318,0.0279,0.0211,0.0195,0.0102,0.0115,0.0079,0.0038,0.0038,0.0089,0,0,0,0,0,0,0.0192,0.022,0.0236,0.0284,0.0331,0.0395,0.0424,0.0443,0.0425,0.0438,0.0386,0.0403,0.0303,0.0354,0.0213,0.0195,0.0166,0.0083,0.0082,0.0038,0.0038,0.0038,0.009,0,0,0,0,0]}]]